STARLINK-4548 (53431 NORAD) Tracking and Keplerian Element Data

This shows tracking and keplerian element data for the satellite.

Feedback or suggestion? Click here.




ElementValue
Catalog53431
NameSTARLINK-4548
Epoch Orbit799
Epoch Day270.25001157
Epoch Year2022
RAAN10.2187
Inclination53.2173
Eccentricity0.0002577
Argument of Perigee16.6131
Mean Anonmoly163.3823
Mean Motion15.7317316
Decay Rate0.00083124
L11 53431U 22097AV 22270.25001157 .00083124 00000+0 59146-3 0 9995
L22 53431 53.2173 10.2187 0002577 16.6131 163.3823 15.73173160 7992

Live tracking and technical data element details for STARLINK-4548 (NORAD 53431). STARLINK-4548 can be tracked NOW for your location showing map with azimuth and elevation plus other details from your city location.

Track the satellite on the map from your city or location and see movement details for azimuth, elevation, latitude, longitude, range, height, and movement on the map or in text.







IsCatalogInMostPopularTable: catalog: 53431, numindb: 5
Update: records affected: 1



GetName: 53431 STARLINK-4548

Hit Count: updated at: Wed, 05 Oct 2022 09:04:42 GMT